Weather History for Dillon, MT

Change the Weather History Date:

Friday, March 15, 2013

  Actual Average Record
Temperature  
Mean Temperature 46 °F 34 °F  
Max Temperature 56 °F 46 °F 63 °F (1992)
Min Temperature 36 °F 23 °F -4 °F (1944)
Degree Days  
Heating Degree Days 19    
Month to date heating degree days 431  
Since 1 July heating degree days 5846  
Cooling Degree Days 0    
Month to date cooling degree days 0  
Year to date cooling degree days 0  
Moisture  
Dew Point 19 °F    
Average Humidity 36    
Maximum Humidity 55    
Minimum Humidity 16    
Precipitation  
Precipitation 0.00 in 0.02 in 0.67 in (1963)
Month to date precipitation 0.07 0.21  
Year to date precipitation 0.33 0.73  
Snow  
Snow 0.00 in - - ()
Snow Depth 0.00 in    
Sea Level Pressure  
Sea Level Pressure 29.97 in    
Wind  
Wind Speed 10 mph (SW)    
Max Wind Speed 26 mph    
Max Gust Speed 30 mph    
Visibility 10 miles    
Events      
T = Trace of Precipitation, MM = Missing Value Source: NWS Daily Summary

Daily Weather History Graph

Daily Weather History Graph

Search for Another Location

Airport:

Trip Planner

Search our weather history database for the weather conditions in past years. The results will help you decide how hot, cold, wet, or windy it might be!

Date:

Astronomy

Mar. 15, 2013 Rise Set
Actual Time 7:42 AM MDT 7:36 PM MDT
Civil Twilight 7:12 AM MDT 8:06 PM MDT
Nautical Twilight 6:38 AM MDT 8:40 PM MDT
Astronomical Twilight 6:03 AM MDT 9:15 PM MDT
Moon 9:22 AM MDT (3/15) No Moon Set
Length of Visible Light 12h 53m
Length of Day
11h 54m
Waxing Crescent, 16% of the Moon is Illuminated
Mar 15
Waxing Crescent
Mar 19
First Quarter
Mar 27
Full
Apr 2
Last Quarter
Apr 10
New

Hourly Weather History & Observations

Time (MDT) Temp. Windchill Dew Point Humidity Pressure Visibility Wind Dir Wind Speed Gust Speed Precip Events Conditions
12:53 AM 41.0 °F 33.9 °F 26.1 °F 55% 29.98 in 10.0 mi SSW 12.7 mph - N/A   Scattered Clouds
1:53 AM 42.1 °F 36.6 °F 24.1 °F 49% 29.96 in 10.0 mi South 9.2 mph - N/A   Overcast
2:53 AM 45.0 °F 39.7 °F 19.0 °F 36% 29.94 in 10.0 mi South 10.4 mph - N/A   Overcast
3:53 AM 37.0 °F 31.0 °F 21.0 °F 52% 29.96 in 10.0 mi SW 8.1 mph - N/A   Clear
4:53 AM 37.9 °F 32.1 °F 19.0 °F 47% 29.94 in 10.0 mi South 8.1 mph - N/A   Clear
5:53 AM 39.9 °F 35.8 °F 19.0 °F 43% 29.94 in 10.0 mi South 5.8 mph - N/A   Clear
6:53 AM 41.0 °F 36.4 °F 19.0 °F 41% 29.96 in 10.0 mi South 6.9 mph - N/A   Clear
7:53 AM 41.0 °F 35.2 °F 19.9 °F 43% 30.01 in 10.0 mi South 9.2 mph - N/A   Clear
8:53 AM 45.0 °F 39.7 °F 21.0 °F 39% 30.02 in 10.0 mi South 10.4 mph - N/A   Clear
9:53 AM 50.0 °F - 24.1 °F 36% 30.01 in 10.0 mi South 5.8 mph - N/A   Clear
10:53 AM 52.0 °F - 24.1 °F 34% 30.02 in 10.0 mi West 5.8 mph - N/A   Partly Cloudy
11:53 AM 53.1 °F - 23.0 °F 31% 30.01 in 10.0 mi West 15.0 mph 23.0 mph N/A   Partly Cloudy
12:53 PM 54.0 °F - 24.1 °F 31% 29.99 in 10.0 mi West 19.6 mph - N/A   Clear
1:53 PM 55.0 °F - 24.1 °F 30% 29.97 in 10.0 mi West 15.0 mph 19.6 mph N/A   Clear
2:53 PM 55.9 °F - 19.9 °F 25% 29.93 in 10.0 mi WSW 16.1 mph 21.9 mph N/A   Clear
3:53 PM 55.9 °F - 12.0 °F 18% 29.94 in 10.0 mi West 18.4 mph - N/A   Clear
4:53 PM 54.0 °F - 12.0 °F 19% 29.95 in 10.0 mi West 18.4 mph - N/A   Clear
5:53 PM 52.0 °F - 6.1 °F 16% 29.95 in 10.0 mi West 20.7 mph - N/A   Clear
6:53 PM 50.0 °F - 10.0 °F 20% 29.95 in 10.0 mi West 15.0 mph - N/A   Clear
7:53 PM 48.0 °F - 12.9 °F 24% 29.96 in 10.0 mi West 3.5 mph - N/A   Clear
8:53 PM 42.1 °F 37.7 °F 15.1 °F 34% 29.99 in 10.0 mi ESE 6.9 mph - N/A   Clear
9:53 PM 39.9 °F 37.8 °F 18.0 °F 41% 29.98 in 10.0 mi East 3.5 mph - N/A   Clear
10:53 PM 39.9 °F - 19.0 °F 43% 29.98 in 10.0 mi Calm Calm - N/A   Clear
11:53 PM 37.0 °F 31.0 °F 19.0 °F 48% 29.98 in 10.0 mi SSE 8.1 mph - N/A   Clear